Home   Weather   Genoa   Past weeks

Flag for Italy Past Weather in Genoa, Italy — Yesterday and Last 2 Weeks

Now
70 °F

Passing clouds.


Feels Like: 70 °F
Forecast: 60 / 78 °F
Wind: 3 mph from North

Location: Genova / Sestri

Current Time: Sep 27, 2016 at 10:41:23 PM

Latest Report: Sep 27, 2016 at 9:50 PM


Visibility: N/A

Pressure: 30.27 "Hg

Humidity: 60%

Dew Point: 55 °F

Location of GenoaLocation

Past Weather in Genoa — Graph

°F

Genoa Temperature Yesterday

Maximum temperature yesterday: 77 °F (at 1:20 PM)
Minimum temperature yesterday: 64 °F (at 2:20 AM)
Average temperature yesterday: 70 °F

High & Low Weather Summary for the Past Weeks

 TemperatureHumidityPressure
High86 °F (Sep 13, 11:20 AM)94% (Sep 15, 9:20 AM)30.27 "Hg (Sep 15, 9:20 AM)
Low61 °F (Sep 19, 2:50 AM)26% (Sep 19, 2:20 PM)29.80 "Hg (Sep 17, 6:20 PM)
Average72 °F62%30.00 "Hg
* Reported Sep 12 9:20 PM — Sep 27 9:20 PM, Genoa, Weather by CustomWeather, © 2016

Note: Actual official high and low records may vary slightly from our data, if they occured in-between our weather recording intervals... More about our weather records

Advertising

Genoa Weather History for the Previous 24 Hours

Scroll right to see more
 ConditionsComfort  
Time TempWeatherWind HumidityBarometerVisibility
9:20 PM
Tue, Sep 27
70 °FPassing clouds.5 mph64%30.27 "HgN/A
8:50 PM70 °FPassing clouds.3 mph69%30.24 "HgN/A
8:20 PM72 °FPassing clouds.5 mph65%30.24 "HgN/A
7:50 PM72 °FClear.2 mph65%30.24 "Hg10 mi
7:20 PM72 °FClear.5 mph65%30.24 "Hg10 mi
6:50 PM73 °FSunny.5 mph57%30.21 "Hg10 mi
6:20 PM75 °FSunny.2 mph54%30.21 "Hg10 mi
5:50 PM75 °FSunny.5 mph57%30.21 "Hg10 mi
5:20 PM75 °FSunny.5 mph57%30.21 "Hg10 mi
4:50 PM75 °FSunny.6 mph57%30.21 "Hg10 mi
4:20 PM77 °FSunny.5 mph54%30.21 "Hg10 mi
3:50 PM75 °FPassing clouds.5 mph61%30.18 "HgN/A
3:20 PM75 °FSunny.5 mph65%30.18 "Hg10 mi
2:50 PM75 °FSunny.8 mph65%30.18 "Hg10 mi
2:20 PM75 °FSunny.9 mph65%30.18 "Hg10 mi
1:50 PM75 °FSunny.10 mph57%30.18 "Hg10 mi
1:20 PM77 °FPassing clouds.6 mph44%30.18 "HgN/A
12:50 PM77 °FPassing clouds.10 mph44%30.18 "HgN/A
12:20 PM77 °FPassing clouds.6 mph44%30.18 "HgN/A
11:50 AM75 °FPassing clouds.5 mph47%30.18 "HgN/A
11:20 AM73 °FPassing clouds.6 mph47%30.18 "HgN/A
10:50 AM73 °FPassing clouds.5 mph50%30.18 "HgN/A
10:20 AM72 °FPassing clouds.6 mph50%30.18 "HgN/A
9:50 AM72 °FPassing clouds.3 mph50%30.18 "HgN/A
9:20 AM70 °FPassing clouds.6 mph50%30.15 "HgN/A
8:50 AM70 °FPassing clouds.5 mph50%30.15 "HgN/A
8:20 AM70 °FPassing clouds.5 mph50%30.15 "HgN/A
7:50 AM68 °FPassing clouds.6 mph53%30.15 "HgN/A
7:20 AM68 °FPassing clouds.7 mph53%30.12 "HgN/A
6:50 AM68 °FClear.7 mph53%30.12 "Hg10 mi
6:20 AM68 °FPassing clouds.5 mph53%30.12 "HgN/A
5:50 AM70 °FPassing clouds.5 mph50%30.12 "HgN/A
5:20 AM70 °FPassing clouds.5 mph53%30.12 "HgN/A
4:50 AM70 °FPassing clouds.5 mph53%30.12 "HgN/A
4:20 AM70 °FPassing clouds.5 mph53%30.12 "HgN/A
3:50 AM70 °FPassing clouds.7 mph53%30.12 "HgN/A
3:20 AM70 °FClear.2 mph57%30.12 "Hg10 mi
2:50 AM70 °FPassing clouds.3 mph57%30.12 "HgN/A
2:20 AM70 °FPassing clouds.5 mph57%30.12 "HgN/A
1:50 AM70 °FClear.5 mph57%30.12 "Hg10 mi
1:20 AM70 °FPassing clouds.5 mph57%30.12 "HgN/A
12:50 AM68 °FClear.6 mph64%30.12 "Hg10 mi
12:20 AM68 °FPassing clouds.5 mph64%30.12 "HgN/A
11:50 PM
Mon, Sep 26
68 °FPassing clouds.6 mph69%30.12 "HgN/A
11:20 PM68 °FPassing clouds.6 mph69%30.12 "HgN/A
10:50 PM68 °FClear.5 mph73%30.12 "Hg10 mi
10:20 PM68 °FPassing clouds.6 mph73%30.12 "HgN/A
Weather by CustomWeather, © 2016

See weather overviewHow to use our weather pages